Location: Pl�tzky
(52.0521°N, 11.8020°E)
Time: 06:11:59
(UTC+00:00)

ATLAS 3B R/B - Pass Details

Date: 22 November 2019
Orbit: 1030 x 1165 km, 63.8° (Epoch: 02 December)

Event Time Altitude Azimuth Distance (km) Brightness Sun altitude
Rises 17:16:02 0° 308° (NW) 3,790 6.2 -18.4°
Reaches altitude 10° 17:18:49 10° 315° (NW) 2,838 5.4 -18.8°
Maximum altitude 17:25:07 42° 26° (NNE) 1,444 3.1 -19.7°
Enters shadow 17:27:20 33° 68° (ENE) 1,687 3.2 -20.1°
